Change the Weather History Date:

Saturday, April 26, 2014

  Actual Average Record
Temperature  
Mean Temperature 67 °F 58 °F  
Max Temperature 79 °F 69 °F 92 °F (1989)
Min Temperature 54 °F 48 °F 34 °F (1907)
Degree Days  
Heating Degree Days 0 8  
Month to date heating degree days 297 301  
Since 1 July heating degree days 5628 4992  
Cooling Degree Days 2 1  
Month to date cooling degree days 9 20  
Year to date cooling degree days 9 23  
Growing Degree Days 16 (Base 50)    
Moisture  
Dew Point 46 °F    
Average Humidity 50    
Maximum Humidity 65    
Minimum Humidity 35    
Precipitation  
Precipitation 0.01 in 0.14 in 1.85 in (2009)
Month to date precipitation 1.99 3.08  
Year to date precipitation 5.35 7.98  
Snow  
Snow 0.00 in 0.00 in 0.00 in ()
Month to date snowfall 0.1 0.6  
Since 1 July snowfall 26.1 18.8  
Snow Depth 0.00 in    
Sea Level Pressure  
Sea Level Pressure 29.69 in    
Wind  
Wind Speed 16 mph (SSE)    
Max Wind Speed 36 mph    
Max Gust Speed 44 mph    
Visibility 10 miles    
Events Thunderstorm    
T = Trace of Precipitation, MM = Missing Value Source: NWS Daily Summary

Daily Weather History Graph

Daily Weather History Graph

Search for Another Location

Airport or City:

Trip Planner

Search our weather history database for the weather conditions in past years. The results will help you decide how hot, cold, wet, or windy it might be!

Date:

Astronomy

Apr. 26, 2014 Rise Set
Actual Time 6:26 AM CDT 8:07 PM CDT
Civil Twilight 5:58 AM CDT 8:36 PM CDT
Nautical Twilight 5:23 AM CDT 9:10 PM CDT
Astronomical Twilight 4:46 AM CDT 9:47 PM CDT
Moon 4:50 AM CDT (4/26) 5:37 PM CDT (4/26)
Length of Visible Light 14h 37m
Length of Day
13h 40m
Waning Crescent, 8% of the Moon is Illuminated
Apr 26
Waning Crescent
Apr 29
New
May 6
First Quarter
May 14
Full
May 21
Last Quarter

Hourly Weather History & Observations

Time (CDT) Temp. Dew Point Humidity Pressure Visibility Wind Dir Wind Speed Gust Speed Precip Events Conditions
12:53 AM 62.1 °F 39.0 °F 43% 29.80 in 10.0 mi South 13.8 mph - N/A   Clear
1:53 AM 61.0 °F 39.0 °F 44% 29.78 in 10.0 mi South 11.5 mph - N/A   Clear
2:53 AM 60.1 °F 37.9 °F 44% 29.77 in 10.0 mi South 11.5 mph - N/A   Clear
3:53 AM 59.0 °F 39.0 °F 48% 29.77 in 10.0 mi South 12.7 mph - N/A   Clear
4:53 AM 55.9 °F 39.0 °F 53% 29.77 in 10.0 mi South 13.8 mph - N/A   Clear
5:53 AM 55.9 °F 39.0 °F 53% 29.77 in 10.0 mi South 11.5 mph - N/A   Partly Cloudy
6:53 AM 57.9 °F 39.9 °F 51% 29.77 in 10.0 mi SSE 10.4 mph - N/A   Scattered Clouds
7:53 AM 61.0 °F 39.9 °F 46% 29.75 in 10.0 mi South 13.8 mph - N/A   Mostly Cloudy
8:53 AM 64.9 °F 42.1 °F 43% 29.75 in 10.0 mi South 13.8 mph - N/A   Scattered Clouds
9:04 AM 63.0 °F 41.0 °F 45% 29.77 in 10.0 mi South 12.7 mph - N/A Thunderstorm Mostly Cloudy
9:53 AM 62.1 °F 46.0 °F 56% 29.75 in 10.0 mi SE 10.4 mph - 0.01 in   Mostly Cloudy
10:53 AM 62.1 °F 50.0 °F 65% 29.76 in 10.0 mi South 13.8 mph - N/A   Overcast
11:53 AM 66.0 °F 51.1 °F 59% 29.74 in 10.0 mi South 24.2 mph 31.1 mph N/A   Overcast
12:53 PM 75.9 °F 50.0 °F 40% 29.70 in 10.0 mi SSE 24.2 mph 34.5 mph N/A   Mostly Cloudy
1:53 PM 78.1 °F 48.9 °F 36% 29.67 in 10.0 mi SSE 28.8 mph 42.6 mph N/A   Scattered Clouds
2:53 PM 77.0 °F 50.0 °F 39% 29.66 in 10.0 mi SSE 26.5 mph 35.7 mph N/A   Scattered Clouds
3:53 PM 78.1 °F 48.9 °F 36% 29.61 in 10.0 mi SE 26.5 mph 35.7 mph N/A   Mostly Cloudy
4:53 PM 75.9 °F 51.1 °F 42% 29.60 in 10.0 mi SE 19.6 mph 32.2 mph N/A   Mostly Cloudy
5:53 PM 75.0 °F 51.1 °F 43% 29.57 in 10.0 mi SE 19.6 mph 31.1 mph N/A   Overcast
6:53 PM 75.0 °F 51.1 °F 43% 29.59 in 10.0 mi SE 16.1 mph 24.2 mph N/A   Overcast
7:53 PM 73.0 °F 51.1 °F 46% 29.57 in 10.0 mi ESE 13.8 mph - N/A   Overcast
8:53 PM 71.1 °F 51.1 °F 49% 29.56 in 10.0 mi ESE 12.7 mph - N/A   Mostly Cloudy
9:53 PM 69.1 °F 50.0 °F 51% 29.57 in 10.0 mi SE 10.4 mph - N/A   Mostly Cloudy
10:53 PM 68.0 °F 50.0 °F 52% 29.58 in 10.0 mi ESE 10.4 mph - N/A   Scattered Clouds
11:53 PM 64.9 °F 50.0 °F 58% 29.57 in 10.0 mi SE 11.5 mph - N/A   Clear